Location: Burgberg
(50.1428°N, 11.0671°E)
Time: 06:42:28
(UTC+00:00)

COSMOS 2455 - Pass Details

Date: 26 January 2020
Orbit: 902 x 907 km, 67.1° (Epoch: 23 February)

Event Time Altitude Azimuth Distance (km) Brightness Sun altitude
Exits shadow 05:06:00 29° 268° (W) 1,610 3.6 -17.8°
Maximum altitude 05:08:30 43° 318° (NW) 1,263 3.2 -17.4°
Drops below altitude 10° 05:14:13 10° 29° (NNE) 2,600 5.5 -16.5°
Sets 05:16:54 0° 36° (NE) 3,545 6.3 -16.1°
